Вернуться в каталог

USPWSA-DRAGOON

АктивенНаукаSSO
NORAD 64542·PAYLOAD·🇺🇸 United States

Запущен Jun 23, 2025 с Vandenberg Space Force Base

Loading…

Ближайшие Пролёты (ближайшие 24 часа)

TLE

СвежийSource: Space-Track

Эпоха: Sep 14, 2026, 06:11 UTC

1 64542U 25135Q   26257.25776640  .00007532  00000-0  28414-3 0  9995
2 64542  97.4783  13.4842 0002192 191.3372 168.7818 15.27331462 68516

Отслеживайте USPWSA-DRAGOON в реальном времени с AllMySat

Download on the App Store